STARLINK-6188

Satellite information

Favourite Embed

Satellite Type and Status

PAYLOADIN ORBIT

Key statistics

Satellite STARLINK-6188 at a glance.

Uptime

960

Days in orbit

Revolutions

≈ 15.0

Per day

Orbit

LEO

Low Earth Orbit

Inclination

43.0

Latest

Satellite identification and parameters

Extended collection of information and parameters for STARLINK-6188.

Object identification

Identified? True

Debris? False

Object name: STARLINK-6188

International designator: 2023-061C

Object number (NORAD): 56376

Object ID (CCSDS): 56376

Country: UNITED STATES OF AMERICA (US)

Current information (Y/N): Y

RCS size: LARGE

Orbital parameters

Period: 95.838 minutes

Inclination: 43.0036 deg

SMA: 6937.222 km

Apoapsis: 559.782 km

Periapsis: 558.393 km

RAAN: 278.4839 deg

Eccentricy: 0.00010015

Argument of periapsis: 274.8225 deg

Mean anomaly: 85.2503 deg

Mean motion: 15.02534084 rev/day

Mean motion (dot): -0.00000016 rev/day2

B* drag term: 0.000013873184 1/REarth

Two-line elements (TLE)

Creation date: Dec. 18, 2025, 8:02 p.m.

Reference frame: TEME

Reference center: EARTH

Epoch: Dec. 18, 2025, 12:04 p.m. UTC

TLE line 0: 0 STARLINK-6188

TLE line 1: 1 56376U 23061C 25352.50322488 -.00000016 00000-0 13873-4 0 9992

TLE line 2: 2 56376 43.0036 278.4839 0001001 274.8225 85.2503 15.02534084144541

Live tracking on map

Real-time ground track for satellite STARLINK-6188.

In-orbit conjunctions

There are no conjunctions computed for STARLINK-6188, at the moment. Check back to stay up to date, as we update our databases every day.

Go to all conjunctions

Associated space launch

A batch of 56 satellites for Starlink mega-constellation - SpaceX's project for space-based Internet communication system.

STARLINK-6188 was lifted into orbit during the mission ‘Falcon 9 Block 5 | Starlink Group 5-6’, on board a Falcon 9 space rocket.

The launch took place on May 4, 2023, 7:31 a.m. from Space Launch Complex 40.

For more information about the launch, click the button.

Launch to space Falcon 9 Block 5 | Starlink Group 5-6
Falcon 9 Block 5 | Starlink Group 5-6

Agency: N/A

Status: Launch Successful

Launch date: May 4, 2023, 7:31 a.m. UTC

Rocket: Falcon 9

Launch pad: Space Launch Complex 40

Location: Cape Canaveral SFS, FL, USA

...

Latest news about this satellite

News about space launch
SpaceX aces Falcon 9 launch, delivers 56 Starlink satellites to orbit

On a clear night and under a bright Moon, SpaceX launched the Falcon 9 to successfully deliver 56 version 1.5 Starlink satellites...

News about space launch
SpaceX readies for a busy month, first up, a Falcon 9 and Starlink satellites

SpaceX is set to begin its potentially busy May launch cadence with the launch of 56 V1.5 Starlink satellites from LC-40 at...


Newsletter sign-up

Weekly statistics, charts and insights to help you stay on top of the space industry.